Location: Orange Harbor Mobile Home Park
(26.6923°N, 81.7937°W)
Time: 02:20:26
(UTC+00:00)

Tiangong - Pass Details

Date: 30 June 2021
Orbit: 373 x 386 km, 41.5° (Epoch: 02 August)

Event Time Altitude Azimuth Distance (km) Brightness Sun altitude
Exits shadow 08:27:48 - 334° (NNW) 1,665 4.5 -24.3°
Reaches altitude 10° 08:28:52 10° 348° (NNW) 1,382 4.3 -24.2°
Maximum altitude 08:30:36 14° 22° (NNE) 1,177 4.3 -23.9°
Drops below altitude 10° 08:32:24 10° 57° (ENE) 1,399 4.9 -23.6°
Sets 08:35:08 0° 83° (E) 2,239 5.8 -23.2°
